Location: Carnoy
(49.9849°N, 2.7558°E)
Time: 12:12:07
(UTC+00:00)

NOSS 2-1 (C) - Pass Details

Date: 24 January 2020
Orbit: 457 x 1746 km, 63.3° (Epoch: 23 January)

Event Time Altitude Azimuth Distance (km) Brightness Sun altitude
Rises 17:00:55 0° 317° (NW) 2,972 7.3 -5.4°
Reaches altitude 10° 17:02:56 10° 320° (NW) 2,191 6.6 -5.7°
Maximum altitude 17:07:57 72° 45° (NE) 928 4.3 -6.5°
Drops below altitude 10° 17:14:58 10° 130° (SE) 3,033 6.8 -7.5°
Sets 17:18:10 0° 132° (SE) 4,207 7.5 -8.0°
